#timestamp,LO_Frequency,Hit,StdDev 
1624003215.1,286046996.5,N
1624003216.0,286046996.5,N
1624003235.8,286046999.5,N
1624003255.6,286046996.6,N
1624003275.5,286046996.9,N
1624003295.3,286046999.2,N
1624003315.2,286046997.4,N
1624003335.9,286046997.0,N
1624003355.7,286046996.7,N
1624003375.6,286046997.2,N
1624003395.4,286046996.8,N
1624003415.2,286046997.2,N
1624003435.1,286046995.4,Y
1624003436.0,286046995.4,P
1624003455.8,286046999.6,N
1624003475.7,286046998.9,N
1624003495.5,286046999.1,N
1624003515.3,286046999.4,N
1624003535.2,286046999.3,N
1624003555.0,286046998.8,N
1624003555.9,286046998.8,N
1624003575.8,286046998.9,N
1624003595.6,286046998.7,N
1624003615.4,286046998.7,N
1624003635.3,286046999.4,N
1624003655.1,286046999.0,N
1624003656.0,286046999.0,N
1624003675.8,286046998.2,N
1624003695.7,286046998.4,N
1624003715.5,286046998.3,N
1624003735.3,286047000.8,N
1624003755.2,286046998.7,N
1624003775.0,286047001.1,N
1624003775.9,286047001.1,N
1624003795.8,286047000.4,N
1624003815.6,286046998.3,N
1624003835.4,286046996.6,N
1624003855.3,286046996.5,N
1624003875.1,286046999.5,N
1624003895.9,286046997.2,N
1624003915.7,286046996.5,N
1624003935.5,286046998.7,N
1624003955.4,286046998.9,N
1624003975.2,286046998.8,N
1624003995.0,286047001.0,N
1624003995.9,286047001.0,N
1624004015.8,286047000.7,N
1624004035.6,286047001.0,N
1624004055.5,286047000.8,N
1624004075.3,286047000.8,N
1624004095.1,286047000.3,N
1624004115.9,286047000.1,N
1624004135.7,286047000.3,N
1624004155.5,286047001.2,N
1624004175.4,286047001.1,N
1624004195.2,286046999.9,N
1624004215.1,286047000.9,N
1624004216.0,286047000.9,N
1624004235.8,286047000.9,N
1624004255.6,286046999.8,N
1624004275.5,286046999.8,N
1624004295.3,286046998.1,N
1624004315.1,286047000.6,N
1624004335.9,286047000.8,N
1624004355.7,286047000.7,N
1624004375.6,286047000.5,N
1624004395.4,286047001.1,N
1624004415.2,286047001.0,N
1624004435.1,286047000.9,N
1624004436.0,286047000.9,N
1624004455.8,286047001.0,N
1624004475.6,286047000.9,N
1624004495.5,286047000.6,N
1624004515.3,286047001.2,N
1624004535.2,286046998.3,N
1624004555.9,286046998.8,N
1624004575.7,286046998.3,N
1624004595.6,286046998.8,N
1624004615.4,286046998.4,N
1624004635.2,286046999.0,N
1624004655.1,286046999.1,N
1624004656.0,286046999.1,N
1624004675.8,286046998.2,N
1624004695.7,286046998.4,N
1624004715.5,286046999.3,N
1624004735.3,286046998.7,N
1624004755.2,286046998.5,N
1624004775.0,286046999.4,N
1624004775.9,286046999.4,N
1624004795.7,286046999.0,N
1624004815.6,286046999.1,N
1624004835.4,286046999.3,N
1624004855.3,286046999.3,N
1624004875.1,286046999.2,N
1624004876.0,286046999.2,N
1624004895.8,286046999.2,N
1624004915.7,286046999.0,N
1624004935.5,286046998.8,N
1624004955.3,286046999.4,N
1624004975.2,286046997.1,Y
1624004995.0,286046999.6,P
1624004995.9,286046999.6,N
1624005015.8,286046999.6,N
1624005035.6,286046999.3,Y
1624005055.4,286046999.0,P
1624005075.3,286046996.5,P
1624005095.1,286046999.2,N
1624005115.9,286046998.8,N
1624005135.7,286046998.3,N
1624005155.5,286046998.3,N
1624005175.4,286046998.9,N
1624005195.2,286046999.4,N
1624005215.0,286046998.9,N
1624005215.9,286046998.9,N
1624005235.8,286046998.5,N
1624005255.6,286046998.9,N
1624005275.5,286046998.7,N
1624005295.3,286046998.2,N
1624005315.1,286046998.9,N
1624005335.9,286046998.9,N
1624005355.7,286046999.0,N
1624005375.5,286046998.9,N
1624005395.4,286046998.8,N
1624005415.2,286046998.8,N
1624005435.0,286046998.8,N
1624005436.0,286046998.8,N
1624005455.8,286046998.8,N
1624005475.6,286046998.3,Y
1624005495.5,286047000.7,P
1624005515.3,286047000.7,N
1624005535.1,286047001.1,N
1624005555.9,286047000.8,N
1624005575.7,286047000.6,N
1624005595.6,286047001.0,N
1624005615.4,286046998.9,N
1624005635.2,286046999.3,N
1624005655.1,286046999.0,N
1624005656.0,286046999.0,N
1624005675.8,286046998.3,N
1624005695.6,286046998.7,N
1624005715.5,286046998.9,N
1624005735.3,286046999.0,N
1624005755.1,286046999.4,N
1624005775.9,286046996.5,Y
1624005795.7,286046999.4,P
1624005815.6,286046999.2,P
1624005835.4,286046997.0,P
1624005855.2,286046999.1,N
1624005875.1,286046997.0,Y
1624005876.0,286046997.0,P
1624005895.8,286046998.6,N
1624005915.7,286046999.5,N
1624005935.5,286046996.9,Y
1624005955.3,286046999.6,P
1624005975.2,286046999.0,N
1624005995.0,286046998.4,P
1624005995.9,286046998.4,Y
1624006015.7,286046998.2,P
1624006035.6,286046998.7,P
1624006055.4,286047001.1,P
1624006075.3,286046998.6,N
1624006095.1,286047001.2,N
1624006096.0,286047001.2,N
1624006115.8,286046998.1,N
1624006135.7,286047001.1,N
1624006155.5,286046999.9,N
1624006175.3,286047000.2,N
1624006195.2,286047002.8,N
1624006215.0,286047001.2,N
1624006215.9,286047001.2,N
1624006235.8,286047000.1,N
1624006255.6,286047002.4,N
1624006275.4,286047000.1,N
1624006295.3,286047002.8,N
1624006315.1,286047002.1,N
1624006335.8,286047002.2,N
1624006355.7,286047000.1,N
1624006375.5,286047000.2,N
1624006395.4,286046999.8,N
1624006415.2,286046999.9,N
1624006435.0,286047001.0,N
1624006435.9,286047001.0,N
1624006455.8,286047000.9,N
1624006475.6,286047000.2,N
1624006495.4,286046999.8,N
1624006515.3,286047002.8,N
1624006535.1,286047000.1,N
1624006555.9,286047002.2,N
1624006575.7,286046999.7,N
1624006595.5,286046999.8,N
1624006615.4,286047002.2,N
1624006635.2,286047002.5,N
1624006655.0,286047002.1,N
1624006655.9,286047002.1,N
1624006675.8,286047002.2,N
1624006695.6,286047002.0,N
1624006715.5,286047001.9,N
1624006735.3,286047002.0,N
1624006755.1,286047002.1,N
1624006775.9,286047001.4,N
1624006795.7,286047001.4,N
